Regional Weather Roundup
Issued by NWS Newport/Morehead, NC

Current Version | Previous Version | Graphics & Text | Print | Product List | Glossary On
Versions: 1 2 3 4 5 6 7 8 9 10 11 12 13 14 15 16 17 18 19 20 21 22 23 24 25 26 27 28 29 30 31 32 33 34 35 36 37 38 39 40 41 42 43 44 45 46 47 48 49 50
000 ASUS42 KMHX 102313 RWRMHX WEATHER ROUNDUP FOR EASTERN NORTH CAROLINA NATIONAL WEATHER SERVICE NEWPORT/MOREHEAD CITY NC 600 PM EST SAT DEC 10 2016 NOTE: "FAIR" INDICATES FEW OR NO CLOUDS BELOW 12,000 FEET WITH NO SIGNIFICANT WEATHER AND/OR OBSTRUCTIONS TO VISIBILITY NCZ015>017-031-032-045>047-102-103-110000- NORTH COAST CITY SKY/WX TMP DP RH WIND PRES REMARKS EDENTON CLEAR 37 22 56 CALM 30.50R ELIZABETH CITY CLEAR 34 19 54 NW3 30.50R KITTY HAWK CLEAR 37 25 64 W3 30.47R MANTEO CLEAR 37 20 50 NW5 30.49R $$ NCZ045>047-081-094-103-104-110000- CENTRAL COAST CITY SKY/WX TMP DP RH WIND PRES REMARKS FRISCO CLEAR 37 22 54 NW3 30.48R $$ NCZ095-097-098-100-101-110000- SOUTHERN COAST CITY SKY/WX TMP DP RH WIND PRES REMARKS BEAUFORT CLEAR 37 22 54 N6 30.49R CEDAR ISLAND NOT AVBL JACKSONVILLE CLEAR 36 19 50 W5 30.50R PINEY ISLAND CLEAR N/A N/A N/A NW8 30.49R WILMINGTON CLEAR 34 25 69 NE3 30.50R $$ NCZ011>013-027>030-043-044-078>080-089-090>093-098-110000- COASTAL PLAIN CITY SKY/WX TMP DP RH WIND PRES REMARKS AHOSKIE CLEAR 31 22 67 CALM 30.50R CLINTON CLEAR 35 22 60 CALM 30.50S ELIZABETHTOWN CLEAR 36 23 59 CALM 30.49S GOLDSBORO CLEAR 35 17 48 CALM 30.48R GREENVILLE CLEAR 32 21 64 CALM 30.50R HAVELOCK CLEAR 38 19 46 NW6 30.51R KENANSVILLE CLEAR 30 21 69 CALM 30.50R KINSTON CLEAR 30 21 69 CALM 30.51R NEW BERN CLEAR 34 20 56 CALM 30.51R RICHLANDS CLEAR 31 25 78 CALM 30.50R ROCKY MOUNT CLEAR 31 20 63 CALM 30.49S WASHINGTON CLEAR 33 19 57 CALM 30.50R WHITEVILLE CLEAR 37 23 58 CALM 30.50R $$ AMZ130-135-150-152-154-156-158-170-250-252-270-ANZ085-086-088-633-658-670-110000- MARINE OBSERVATIONS STATION/POSITION TIME TEMP WIND PRES WAVE SWELL AIR SEA DIR/SP/G HT/PER HT/PER (UTC) (F) (DEG/KT/KT) (MB) (FT/S) (FT/S) CHESAPEAKE LIGHT NOT AVBL 64 E VA BEACH 2250 40 58 310/ 16/ 19 1031.3 3/ 7 2/ 7 DUCK 2248 39 50 300/ 9/ 11 1031.8 2 E DUCK NOT AVBL OREGON INLET 2236 35 49 340/ 3/ 5 1032.2 13E OREGON INLT NOT AVBL HATTERAS CG 2248 41 51 300/ 6/ 9 1031.8 DIAMOND BUOY 2250 43 77 320/ 10/ 16 1032.1 4/ 9 3/ 9 CAPE LOOKOUT 2300 41 360/ 7/ 8 1031.8 BEAUFORT LAB 2248 41 49 340/ 3/ 4 1031.2 30 SE NEW RVR IN 2208 45 68 350/ 6/ 10 1032.0 30 SE NEW RVR IN 2243 68 N/A 2/ 8 27 SE WRIGHTSVLE 2208 45 69 340/ 6/ 14 1032.0 5 SE WRIGHTSVLE 2208 42 60 350/ 8/ 14 1031.8 225 S CAPE HAT 2250 61 73 10/ 12/ 16 1029.2 4/ 8 3/ 8 41 SE CHARLESTON 2250 51 73 30/ 10/ 16 1031.4 3/ 5 2/ 5 $$

USA.gov is the U.S. government's official web portal to all federal, state and local government web resources and services.